433 
ASUS46 KSEW 181710
RWRWA 

WASHINGTON REGIONAL WEATHER ROUNDUP
NATIONAL WEATHER SERVICE SEATTLE WA
1000 AM PDT TUE SEP 18 2018

NOTE:"FAIR" INDICATES FEW OR NO CLOUDS BELOW 12,000 FEET WITH NO 
SIGNIFICANT WEATHER AND/OR OBSTRUCTIONS TO VISIBILITY.

WAZ507-509-555>559-181800-
SEATTLE, TACOMA, EVERETT, AND VICINITY
  
CITY           SKY/WX    TMP DP  RH WIND       PRES   REMARKS
EVERETT        CLOUDY    53  49  86 NW6       30.14S                  
BOEING FIELD   CLOUDY    54  46  74 VRB5      30.14S                  
RENTON         CLOUDY    55  47  74 VRB6      30.14S                  
SEATAC AIRPORT CLOUDY    53  47  79 N12       30.13S                  
JBLM-MCCHORD   NOT AVBL                                               
PUYALLUP       FAIR      55  48  76 CALM      30.13S                  
BREMERTON      SUNNY     55  46  71 NE6       30.14S                  
JBLM-FT LEWIS  NOT AVBL                                               
TACOMA NARROWS PTSUNNY   53  47  79 N6        30.13S                  
$$
 
WAZ001-503-506-510-514-515-181800-
NORTH INTERIOR
  
CITY           SKY/WX    TMP DP  RH WIND       PRES   REMARKS
BELLINGHAM     PTSUNNY   56  49  77 NW3       30.13F                  
FRIDAY HARBOR  PTSUNNY   58  49  72 CALM      30.15S                  
EASTSOUND      CLOUDY    54  52  94 CALM      30.14R                  
PORT ANGELES   SUNNY     58  47  66 E8        30.15S                  
EDIZ HOOK      FAIR      55  46  72 CALM      30.15S                  
PORT TOWNSEND  FAIR      57  48  72 VRB6G12   30.14R                  
NAS WHIDBEY    PTSUNNY   58  50  75 W7        30.18S                  
ARLINGTON      MOSUNNY   49  48  97 CALM      30.14F                  
BURLINGTON     PTSUNNY   54  48  82 CALM      30.14S                  
$$
 
WAZ020-022-039-040-504-511-512-181800-
SOUTHWEST INTERIOR
  
CITY           SKY/WX    TMP DP  RH WIND       PRES   REMARKS
SHELTON        SUNNY     55  46  71 CALM      30.12S                  
OLYMPIA        SUNNY     54  46  74 NE3       30.14S                  
CHEHALIS       FAIR      54  50  87 VRB5      30.13F                  
KELSO          SUNNY     53  46  77 N5        30.13S                  
VANCOUVER      SUNNY     54  49  83 NE5       30.11S                  
SCAPPOOSE, OR  SUNNY     57  45  64 N9        30.10S                  
PORTLAND, OR   PTSUNNY   52  48  86 N5        30.12S                  
$$
 
WAZ021-516-517-181800-
WASHINGTON COAST
  
CITY           SKY/WX    TMP DP  RH WIND       PRES   REMARKS
FORKS          SUNNY     50  45  83 E3        30.14S                  
HOQUIAM        SUNNY     53  47  79 NE5       30.15S                  
ASTORIA, OR    SUNNY     55  48  77 CALM      30.13S                  
$$
 
WAZ019-023-024-040-567>569-181800-
CASCADE MOUNTAINS AND COLUMBIA GORGE
  
CITY           SKY/WX    TMP DP  RH WIND       PRES   REMARKS
STAMPEDE PASS  FOG       42  42 100 VRB6      30.09S VSB 1/4          
TROUTDALE, OR  CLOUDY    53  47  79 CALM      30.11S                  
HOOD RIVER, OR SUNNY     54  46  76 CALM      30.09S                  
THE DALLES, OR SUNNY     58  47  66 CALM      30.07S                  
$$

WAZ026-027-041>044-520-521-181800-
EAST SLOPES
  
CITY           SKY/WX    TMP DP  RH WIND       PRES   REMARKS
OMAK           SUNNY     58  43  57 N15G21    30.08F                  
WENATCHEE      SUNNY     55  41  59 W8        30.07S                  
ELLENSBURG     SUNNY     55  42  61 CALM      30.07F                  
YAKIMA         SUNNY     58  40  51 NW7       30.07F                  
SUNNYSIDE ARPT SUNNY     53  42  65 CALM      30.07F                  
YAKIMA TC      NOT AVBL                                               
$$

WAZ028-034-035-181800-
COLUMBIA BASIN
  
CITY           SKY/WX    TMP DP  RH WIND       PRES   REMARKS
EPHRATA        SUNNY     60  36  40 VRB3      30.06S                  
MOSES LAKE     SUNNY     57  35  43 N6        30.07S                  
PASCO          SUNNY     56  41  57 CALM      30.08S                  
RICHLAND ARPT  SUNNY     59  43  55 CALM      30.07F                  
HERMISTON, OR  SUNNY     59  41  51 W5        30.07S                  
$$

WAZ036>038-181800-
NORTHEAST WASHINGTON
  
CITY           SKY/WX    TMP DP  RH WIND       PRES   REMARKS
SPOKANE GEIGER MOSUNNY   54  38  54 VRB5      30.06S                  
SPOKANE FELTS  SUNNY     54  39  57 CALM      30.07S                  
FAIRCHILD AFB  NOT AVBL                                               
COEURDALENE,ID SUNNY     54  41  61 NE10      30.06S                  
DEER PARK      SUNNY     56  38  50 NE7       30.06S                  
$$

WAZ029>033-181800-
SOUTHEAST WASHINGTON
  
CITY           SKY/WX    TMP DP  RH WIND       PRES   REMARKS
PULLMAN        MOSUNNY   55  36  48 W8        30.07S                  
LEWISTON, ID   PTSUNNY   56  42  59 NW3       30.05R                  
WALLA WALLA    SUNNY     59  37  44 VRB3      30.06S                  
PENDLETON, OR  SUNNY     57  37  47 VRB3      30.06F                  
$$